Time,TemperatureF,DewpointF,PressureIn,WindDirection,WindDirectionDegrees,WindSpeedMPH,WindSpeedGustMPH,Humidity,HourlyPrecipIn,Conditions,Clouds,dailyrainin,SoftwareType,DateUTC
2013-10-26 00:02:00,51.4,50.5,30.15,SSW,192,2.0,8.0,97,0.00,,,0.00,meteohub,2013-10-26 07:02:00,
2013-10-26 00:07:00,51.4,50.5,30.15,South,182,0.0,8.0,97,0.00,,,0.00,meteohub,2013-10-26 07:07:00,
2013-10-26 00:12:00,51.4,50.5,30.15,SSW,192,3.0,6.0,97,0.00,,,0.00,meteohub,2013-10-26 07:12:00,
2013-10-26 00:17:00,51.4,50.5,30.15,SSE,167,0.0,5.0,97,0.00,,,0.00,meteohub,2013-10-26 07:17:00,
2013-10-26 00:22:00,51.4,50.5,30.15,South,175,1.0,4.0,97,0.00,,,0.00,meteohub,2013-10-26 07:22:00,
2013-10-26 00:27:00,51.4,50.5,30.15,South,175,1.0,4.0,97,0.00,,,0.00,meteohub,2013-10-26 07:27:00,
2013-10-26 00:32:00,51.4,50.5,30.15,SSW,209,0.0,4.0,97,0.00,,,0.00,meteohub,2013-10-26 07:32:00,
2013-10-26 00:37:00,51.4,50.5,30.15,SE,140,0.0,4.0,97,0.00,,,0.00,meteohub,2013-10-26 07:37:00,
2013-10-26 00:42:00,51.4,50.5,30.15,SSE,155,1.0,4.0,97,0.00,,,0.00,meteohub,2013-10-26 07:42:00,
2013-10-26 00:47:00,51.3,50.4,30.15,SSE,154,0.0,4.0,97,0.00,,,0.00,meteohub,2013-10-26 07:47:00,
2013-10-26 00:52:00,51.4,50.5,30.16,SSE,149,0.0,4.0,97,0.00,,,0.00,meteohub,2013-10-26 07:52:00,
2013-10-26 00:57:00,51.4,50.5,30.16,SSE,165,2.0,4.0,97,0.00,,,0.00,meteohub,2013-10-26 07:57:00,
2013-10-26 01:02:00,51.4,50.5,30.16,SSE,165,2.0,4.0,97,0.00,,,0.00,meteohub,2013-10-26 08:02:00,
2013-10-26 01:07:00,51.4,50.5,30.16,SSE,157,3.0,4.0,97,0.00,,,0.00,meteohub,2013-10-26 08:07:00,
2013-10-26 01:12:00,51.4,50.5,30.15,South,171,5.0,6.0,97,0.00,,,0.00,meteohub,2013-10-26 08:12:00,
2013-10-26 01:17:00,51.4,50.5,30.15,SSE,147,3.0,6.0,97,0.00,,,0.00,meteohub,2013-10-26 08:17:00,
2013-10-26 01:22:00,51.4,50.5,30.15,SSE,150,1.0,6.0,97,0.00,,,0.00,meteohub,2013-10-26 08:22:00,
2013-10-26 01:27:00,51.4,50.9,30.16,South,184,2.0,7.0,98,0.01,,,0.01,meteohub,2013-10-26 08:27:00,
2013-10-26 01:32:00,51.4,50.9,30.15,South,170,3.0,7.0,98,0.01,,,0.01,meteohub,2013-10-26 08:32:00,
2013-10-26 01:37:00,51.4,50.9,30.15,SE,127,2.0,7.0,98,0.01,,,0.01,meteohub,2013-10-26 08:37:00,
2013-10-26 01:42:00,51.4,50.9,30.16,South,174,2.0,7.0,98,0.01,,,0.01,meteohub,2013-10-26 08:42:00,
2013-10-26 01:47:00,51.4,50.9,30.16,ESE,113,1.0,7.0,98,0.01,,,0.01,meteohub,2013-10-26 08:47:00,
2013-10-26 01:52:00,51.4,50.9,30.16,South,180,1.0,7.0,98,0.01,,,0.01,meteohub,2013-10-26 08:52:00,
2013-10-26 01:57:00,51.4,50.9,30.16,SE,126,1.0,7.0,98,0.01,,,0.01,meteohub,2013-10-26 08:57:00,
2013-10-26 02:02:00,51.4,50.9,30.16,SSE,150,0.0,5.0,98,0.01,,,0.01,meteohub,2013-10-26 09:02:00,
2013-10-26 02:07:00,51.4,50.9,30.16,South,171,0.0,4.0,98,0.01,,,0.01,meteohub,2013-10-26 09:07:00,
2013-10-26 02:12:00,51.4,50.9,30.16,South,190,0.0,6.0,98,0.01,,,0.01,meteohub,2013-10-26 09:12:00,
2013-10-26 02:17:00,51.4,50.9,30.16,SE,142,3.0,6.0,98,0.01,,,0.01,meteohub,2013-10-26 09:17:00,
2013-10-26 02:22:00,51.4,50.9,30.17,South,177,2.0,6.0,98,0.01,,,0.01,meteohub,2013-10-26 09:22:00,
2013-10-26 02:27:00,51.4,50.9,30.17,SSE,159,1.0,5.0,98,0.00,,,0.01,meteohub,2013-10-26 09:27:00,
2013-10-26 02:32:00,51.4,50.9,30.17,SSW,199,2.0,4.0,98,0.00,,,0.01,meteohub,2013-10-26 09:32:00,
2013-10-26 02:37:00,51.4,50.9,30.17,South,173,0.0,5.0,98,0.00,,,0.01,meteohub,2013-10-26 09:37:00,
2013-10-26 02:42:00,51.4,50.9,30.17,South,173,0.0,5.0,98,0.00,,,0.01,meteohub,2013-10-26 09:42:00,
2013-10-26 02:47:00,51.4,50.9,30.16,South,173,1.0,5.0,98,0.00,,,0.01,meteohub,2013-10-26 09:47:00,
2013-10-26 02:52:00,51.4,50.9,30.16,South,185,0.0,3.0,98,0.00,,,0.01,meteohub,2013-10-26 09:52:00,
2013-10-26 02:57:00,51.3,50.7,30.16,SSE,149,0.0,5.0,98,0.00,,,0.01,meteohub,2013-10-26 09:57:00,
2013-10-26 03:02:00,51.3,50.7,30.16,SSE,155,2.0,5.0,98,0.00,,,0.01,meteohub,2013-10-26 10:02:00,
2013-10-26 03:07:00,51.1,50.5,30.16,SSE,151,1.0,5.0,98,0.00,,,0.01,meteohub,2013-10-26 10:07:00,
2013-10-26 03:12:00,51.1,50.5,30.16,South,176,1.0,4.0,98,0.00,,,0.01,meteohub,2013-10-26 10:12:00,
2013-10-26 03:17:00,51.1,50.5,30.16,SE,145,2.0,6.0,98,0.00,,,0.01,meteohub,2013-10-26 10:17:00,
2013-10-26 03:22:00,51.1,50.5,30.16,SSE,157,1.0,6.0,98,0.00,,,0.01,meteohub,2013-10-26 10:22:00,
2013-10-26 03:27:00,51.1,50.5,30.16,SSE,157,1.0,3.0,98,0.00,,,0.01,meteohub,2013-10-26 10:27:00,
2013-10-26 03:32:00,51.1,50.5,30.16,SSE,156,1.0,3.0,98,0.00,,,0.01,meteohub,2013-10-26 10:32:00,
2013-10-26 03:37:00,51.1,50.5,30.15,SSE,156,0.0,3.0,98,0.00,,,0.01,meteohub,2013-10-26 10:37:00,
2013-10-26 03:42:00,51.1,50.5,30.15,SSE,156,0.0,3.0,98,0.00,,,0.01,meteohub,2013-10-26 10:42:00,
2013-10-26 03:47:00,50.9,50.4,30.15,SSE,161,4.0,4.0,98,0.00,,,0.01,meteohub,2013-10-26 10:47:00,
2013-10-26 03:52:00,50.9,50.4,30.15,SE,132,1.0,4.0,98,0.00,,,0.01,meteohub,2013-10-26 10:52:00,
2013-10-26 03:57:00,50.9,50.4,30.15,SE,132,0.0,4.0,98,0.00,,,0.01,meteohub,2013-10-26 10:57:00,
2013-10-26 04:02:00,51.1,50.5,30.15,SE,135,0.0,4.0,98,0.00,,,0.01,meteohub,2013-10-26 11:02:00,
2013-10-26 04:07:00,51.1,50.5,30.15,SE,135,0.0,3.0,98,0.00,,,0.01,meteohub,2013-10-26 11:07:00,
2013-10-26 04:12:00,51.1,50.5,30.15,SE,135,0.0,3.0,98,0.00,,,0.01,meteohub,2013-10-26 11:12:00,
2013-10-26 04:17:00,51.1,50.5,30.14,SE,135,0.0,2.0,98,0.00,,,0.01,meteohub,2013-10-26 11:17:00,
2013-10-26 04:22:00,51.1,50.5,30.14,SE,135,0.0,2.0,98,0.00,,,0.01,meteohub,2013-10-26 11:22:00,
2013-10-26 04:27:00,51.1,50.5,30.14,SE,135,1.0,2.0,98,0.00,,,0.01,meteohub,2013-10-26 11:27:00,
2013-10-26 04:32:00,51.1,50.5,30.14,SE,135,0.0,2.0,98,0.00,,,0.01,meteohub,2013-10-26 11:32:00,
2013-10-26 04:37:00,50.9,50.4,30.14,SE,135,0.0,2.0,98,0.00,,,0.01,meteohub,2013-10-26 11:37:00,
2013-10-26 04:42:00,50.7,50.2,30.14,SE,135,0.0,2.0,98,0.00,,,0.01,meteohub,2013-10-26 11:42:00,
2013-10-26 04:47:00,50.5,50.0,30.14,SE,135,0.0,2.0,98,0.00,,,0.01,meteohub,2013-10-26 11:47:00,
2013-10-26 04:52:00,50.4,49.8,30.14,SE,135,0.0,2.0,98,0.00,,,0.01,meteohub,2013-10-26 11:52:00,
2013-10-26 04:57:00,50.2,49.6,30.14,SE,135,0.0,1.0,98,0.00,,,0.01,meteohub,2013-10-26 11:57:00,
2013-10-26 05:02:00,49.8,49.3,30.14,SE,135,0.0,1.0,98,0.00,,,0.01,meteohub,2013-10-26 12:02:00,
2013-10-26 05:07:00,49.6,49.1,30.14,SE,135,0.0,1.0,98,0.00,,,0.01,meteohub,2013-10-26 12:07:00,
2013-10-26 05:12:00,49.5,48.9,30.15,SE,135,0.0,0.0,98,0.00,,,0.01,meteohub,2013-10-26 12:12:00,
2013-10-26 05:17:00,49.1,48.6,30.14,SE,135,0.0,1.0,98,0.00,,,0.01,meteohub,2013-10-26 12:17:00,
2013-10-26 05:22:00,48.9,48.4,30.14,SE,135,0.0,1.0,98,0.00,,,0.01,meteohub,2013-10-26 12:22:00,
2013-10-26 05:27:00,48.9,48.4,30.15,SE,135,0.0,1.0,98,0.00,,,0.01,meteohub,2013-10-26 12:27:00,
2013-10-26 05:32:00,48.7,48.2,30.14,SE,135,0.0,0.0,98,0.00,,,0.01,meteohub,2013-10-26 12:32:00,
2013-10-26 05:37:00,48.4,47.8,30.14,SE,135,0.0,0.0,98,0.00,,,0.01,meteohub,2013-10-26 12:37:00,
2013-10-26 05:42:00,48.4,47.8,30.14,SE,135,0.0,0.0,98,0.00,,,0.01,meteohub,2013-10-26 12:42:00,
2013-10-26 05:47:00,48.4,47.8,30.14,SE,135,0.0,0.0,98,0.00,,,0.01,meteohub,2013-10-26 12:47:00,
2013-10-26 05:52:00,48.2,47.7,30.14,SE,135,0.0,0.0,98,0.00,,,0.01,meteohub,2013-10-26 12:52:00,
2013-10-26 05:57:00,48.0,47.5,30.14,SE,135,0.0,0.0,98,0.00,,,0.01,meteohub,2013-10-26 12:57:00,
2013-10-26 06:02:00,48.2,47.7,30.14,SE,135,0.0,1.0,98,0.00,,,0.01,meteohub,2013-10-26 13:02:00,
2013-10-26 06:07:00,48.6,48.0,30.14,SE,135,0.0,2.0,98,0.00,,,0.01,meteohub,2013-10-26 13:07:00,
2013-10-26 06:12:00,48.9,48.7,30.14,SE,135,0.0,2.0,99,0.00,,,0.01,meteohub,2013-10-26 13:12:00,
2013-10-26 06:17:00,49.1,48.6,30.14,SE,135,0.0,1.0,98,0.00,,,0.01,meteohub,2013-10-26 13:17:00,
2013-10-26 06:22:00,48.7,48.2,30.14,SE,135,0.0,1.0,98,0.00,,,0.01,meteohub,2013-10-26 13:22:00,
2013-10-26 06:27:00,49.1,48.9,30.14,SE,135,0.0,1.0,99,0.00,,,0.01,meteohub,2013-10-26 13:27:00,
2013-10-26 06:32:00,48.9,48.7,30.14,SE,135,0.0,1.0,99,0.00,,,0.01,meteohub,2013-10-26 13:32:00,
2013-10-26 06:37:00,49.5,48.9,30.14,SE,135,1.0,2.0,98,0.00,,,0.01,meteohub,2013-10-26 13:37:00,
2013-10-26 06:42:00,48.9,48.7,30.15,SE,135,0.0,2.0,99,0.00,,,0.01,meteohub,2013-10-26 13:42:00,
2013-10-26 06:47:00,48.7,48.2,30.15,SE,135,0.0,2.0,98,0.00,,,0.01,meteohub,2013-10-26 13:47:00,
2013-10-26 06:52:00,48.7,48.2,30.15,SE,135,0.0,2.0,98,0.00,,,0.01,meteohub,2013-10-26 13:52:00,
2013-10-26 06:57:00,49.1,48.9,30.15,SE,135,0.0,2.0,99,0.00,,,0.01,meteohub,2013-10-26 13:57:00,
2013-10-26 07:02:00,48.9,48.7,30.15,SE,135,0.0,1.0,99,0.00,,,0.01,meteohub,2013-10-26 14:02:00,
2013-10-26 07:07:00,49.1,48.9,30.15,SE,135,0.0,1.0,99,0.00,,,0.01,meteohub,2013-10-26 14:07:00,
2013-10-26 07:12:00,49.1,48.9,30.15,SE,135,0.0,0.0,99,0.00,,,0.01,meteohub,2013-10-26 14:12:00,
2013-10-26 07:17:00,49.3,48.7,30.15,SE,135,0.0,1.0,98,0.00,,,0.01,meteohub,2013-10-26 14:17:00,
2013-10-26 07:22:00,49.1,48.9,30.15,SE,135,1.0,1.0,99,0.00,,,0.01,meteohub,2013-10-26 14:22:00,
2013-10-26 07:27:00,49.3,49.1,30.15,SE,135,1.0,1.0,99,0.00,,,0.01,meteohub,2013-10-26 14:27:00,
2013-10-26 07:32:00,49.3,49.1,30.15,SE,135,0.0,1.0,99,0.00,,,0.01,meteohub,2013-10-26 14:32:00,
2013-10-26 07:37:00,49.3,49.1,30.15,SE,135,1.0,2.0,99,0.00,,,0.01,meteohub,2013-10-26 14:37:00,
2013-10-26 07:42:00,49.5,49.3,30.16,SE,135,1.0,2.0,99,0.00,,,0.01,meteohub,2013-10-26 14:42:00,
2013-10-26 07:47:00,49.5,49.3,30.16,SE,135,0.0,3.0,99,0.00,,,0.01,meteohub,2013-10-26 14:47:00,
2013-10-26 07:52:00,49.5,49.3,30.16,SE,135,0.0,3.0,99,0.00,,,0.01,meteohub,2013-10-26 14:52:00,
2013-10-26 07:57:00,49.3,49.1,30.16,SE,135,0.0,3.0,99,0.00,,,0.01,meteohub,2013-10-26 14:57:00,
2013-10-26 08:02:00,49.5,49.3,30.16,SE,135,0.0,2.0,99,0.00,,,0.01,meteohub,2013-10-26 15:02:00,
2013-10-26 08:07:00,49.6,49.5,30.16,SE,135,0.0,2.0,99,0.00,,,0.01,meteohub,2013-10-26 15:07:00,
2013-10-26 08:12:00,49.6,49.5,30.17,SE,135,0.0,1.0,99,0.00,,,0.01,meteohub,2013-10-26 15:12:00,
2013-10-26 08:17:00,49.8,49.5,30.17,SE,135,0.0,1.0,99,0.00,,,0.01,meteohub,2013-10-26 15:17:00,
2013-10-26 08:22:00,50.0,49.6,30.17,SE,135,0.0,1.0,99,0.00,,,0.01,meteohub,2013-10-26 15:22:00,
2013-10-26 08:27:00,50.2,49.8,30.17,SE,132,0.0,1.0,99,0.00,,,0.01,meteohub,2013-10-26 15:27:00,
2013-10-26 08:32:00,50.4,50.0,30.17,SE,132,0.0,1.0,99,0.00,,,0.01,meteohub,2013-10-26 15:32:00,
2013-10-26 08:37:00,50.4,50.0,30.17,SE,137,1.0,2.0,99,0.00,,,0.01,meteohub,2013-10-26 15:37:00,
2013-10-26 08:42:00,50.4,50.0,30.17,SE,137,0.0,3.0,99,0.00,,,0.01,meteohub,2013-10-26 15:42:00,
2013-10-26 08:47:00,50.5,50.2,30.17,SE,137,0.0,3.0,99,0.00,,,0.01,meteohub,2013-10-26 15:47:00,
2013-10-26 08:52:00,50.7,50.4,30.17,SE,137,0.0,2.0,99,0.00,,,0.01,meteohub,2013-10-26 15:52:00,
2013-10-26 08:57:00,50.7,50.4,30.17,SE,137,0.0,2.0,99,0.00,,,0.01,meteohub,2013-10-26 15:57:00,
2013-10-26 09:02:00,51.1,50.7,30.17,SE,137,0.0,2.0,99,0.00,,,0.01,meteohub,2013-10-26 16:02:00,
2013-10-26 09:07:00,51.4,51.1,30.17,SE,137,0.0,1.0,99,0.00,,,0.01,meteohub,2013-10-26 16:07:00,
2013-10-26 09:12:00,52.0,51.6,30.17,SE,137,0.0,1.0,99,0.00,,,0.01,meteohub,2013-10-26 16:12:00,
2013-10-26 09:17:00,52.5,52.2,30.17,SE,137,0.0,0.0,99,0.00,,,0.01,meteohub,2013-10-26 16:17:00,
2013-10-26 09:22:00,52.5,52.2,30.17,SE,137,0.0,0.0,99,0.00,,,0.01,meteohub,2013-10-26 16:22:00,
2013-10-26 09:27:00,52.9,52.5,30.17,SE,137,0.0,1.0,99,0.00,,,0.01,meteohub,2013-10-26 16:27:00,
2013-10-26 09:32:00,53.2,52.9,30.17,SE,137,0.0,1.0,99,0.00,,,0.01,meteohub,2013-10-26 16:32:00,
2013-10-26 09:37:00,53.6,53.2,30.17,SE,137,0.0,1.0,99,0.00,,,0.01,meteohub,2013-10-26 16:37:00,
2013-10-26 09:42:00,53.8,53.4,30.17,SE,137,0.0,1.0,99,0.00,,,0.01,meteohub,2013-10-26 16:42:00,
2013-10-26 09:47:00,54.9,54.5,30.17,SE,137,0.0,1.0,99,0.00,,,0.01,meteohub,2013-10-26 16:47:00,
2013-10-26 09:52:00,55.8,55.4,30.17,ESE,113,1.0,2.0,99,0.00,,,0.01,meteohub,2013-10-26 16:52:00,
2013-10-26 09:57:00,56.7,56.3,30.17,ESE,119,0.0,5.0,99,0.00,,,0.01,meteohub,2013-10-26 16:57:00,
2013-10-26 10:02:00,57.4,57.0,30.17,SE,139,2.0,5.0,99,0.00,,,0.01,meteohub,2013-10-26 17:02:00,
2013-10-26 10:07:00,58.3,57.4,30.17,SE,128,2.0,5.0,97,0.00,,,0.01,meteohub,2013-10-26 17:07:00,
2013-10-26 10:12:00,58.8,56.5,30.17,SE,130,1.0,4.0,92,0.00,,,0.01,meteohub,2013-10-26 17:12:00,
2013-10-26 10:17:00,59.4,55.8,30.17,ESE,116,2.0,4.0,88,0.00,,,0.01,meteohub,2013-10-26 17:17:00,
2013-10-26 10:22:00,59.7,54.9,30.17,SE,127,2.0,3.0,84,0.00,,,0.01,meteohub,2013-10-26 17:22:00,
2013-10-26 10:27:00,60.3,55.4,30.17,SE,132,3.0,5.0,84,0.00,,,0.01,meteohub,2013-10-26 17:27:00,
2013-10-26 10:32:00,60.6,55.4,30.17,ESE,117,0.0,5.0,83,0.00,,,0.01,meteohub,2013-10-26 17:32:00,
2013-10-26 10:37:00,61.0,54.7,30.16,SE,146,1.0,5.0,80,0.00,,,0.01,meteohub,2013-10-26 17:37:00,
2013-10-26 10:42:00,61.3,54.9,30.16,South,178,0.0,5.0,79,0.00,,,0.01,meteohub,2013-10-26 17:42:00,
2013-10-26 10:47:00,61.7,55.0,30.16,SSE,162,2.0,5.0,79,0.00,,,0.01,meteohub,2013-10-26 17:47:00,
2013-10-26 10:52:00,62.2,55.2,30.16,South,180,1.0,5.0,78,0.00,,,0.01,meteohub,2013-10-26 17:52:00,
2013-10-26 10:57:00,62.2,54.5,30.16,South,176,1.0,4.0,76,0.00,,,0.01,meteohub,2013-10-26 17:57:00,
2013-10-26 11:02:00,63.0,54.9,30.16,South,170,0.0,4.0,75,0.00,,,0.01,meteohub,2013-10-26 18:02:00,
2013-10-26 11:07:00,63.7,55.2,30.16,SSE,161,0.0,3.0,74,0.00,,,0.01,meteohub,2013-10-26 18:07:00,
2013-10-26 11:12:00,64.0,54.9,30.17,East,99,0.0,3.0,72,0.00,,,0.01,meteohub,2013-10-26 18:12:00,
2013-10-26 11:17:00,64.2,55.4,30.17,NNE,20,3.0,3.0,73,0.00,,,0.01,meteohub,2013-10-26 18:17:00,
2013-10-26 11:22:00,64.2,55.0,30.16,NNW,347,3.0,4.0,72,0.00,,,0.01,meteohub,2013-10-26 18:22:00,
2013-10-26 11:27:00,64.2,55.0,30.17,North,355,3.0,5.0,72,0.00,,,0.01,meteohub,2013-10-26 18:27:00,
2013-10-26 11:32:00,64.6,54.5,30.17,NNE,19,1.0,5.0,70,0.00,,,0.01,meteohub,2013-10-26 18:32:00,
2013-10-26 11:37:00,64.8,53.6,30.17,NNW,347,3.0,5.0,67,0.00,,,0.01,meteohub,2013-10-26 18:37:00,
2013-10-26 11:42:00,64.9,53.8,30.16,North,5,3.0,5.0,67,0.00,,,0.01,meteohub,2013-10-26 18:42:00,
2013-10-26 11:47:00,65.1,53.4,30.16,North,355,1.0,5.0,66,0.00,,,0.01,meteohub,2013-10-26 18:47:00,
2013-10-26 11:52:00,65.8,53.8,30.16,NNW,348,2.0,6.0,65,0.00,,,0.01,meteohub,2013-10-26 18:52:00,
2013-10-26 11:57:00,65.5,53.4,30.16,NNW,327,2.0,6.0,65,0.00,,,0.01,meteohub,2013-10-26 18:57:00,
2013-10-26 12:02:00,66.0,54.0,30.16,NNW,330,1.0,5.0,65,0.00,,,0.01,meteohub,2013-10-26 19:02:00,
2013-10-26 12:07:00,66.4,52.9,30.16,NW,313,1.0,5.0,62,0.00,,,0.01,meteohub,2013-10-26 19:07:00,
2013-10-26 12:12:00,66.6,53.6,30.16,NNW,344,3.0,5.0,63,0.00,,,0.01,meteohub,2013-10-26 19:12:00,
2013-10-26 12:17:00,66.7,52.3,30.15,NNW,342,3.0,5.0,60,0.00,,,0.01,meteohub,2013-10-26 19:17:00,
2013-10-26 12:22:00,67.3,52.0,30.15,NNE,14,3.0,5.0,58,0.00,,,0.01,meteohub,2013-10-26 19:22:00,
2013-10-26 12:27:00,67.6,54.1,30.15,NNW,332,1.0,5.0,62,0.00,,,0.01,meteohub,2013-10-26 19:27:00,
2013-10-26 12:32:00,67.1,54.5,30.15,NW,313,3.0,6.0,64,0.00,,,0.01,meteohub,2013-10-26 19:32:00,
2013-10-26 12:37:00,67.1,54.1,30.15,North,5,0.0,6.0,63,0.00,,,0.01,meteohub,2013-10-26 19:37:00,
2013-10-26 12:42:00,67.3,54.3,30.14,WNW,298,3.0,6.0,63,0.00,,,0.01,meteohub,2013-10-26 19:42:00,
2013-10-26 12:47:00,67.3,54.7,30.14,NNW,342,1.0,4.0,64,0.00,,,0.01,meteohub,2013-10-26 19:47:00,
2013-10-26 12:52:00,67.3,55.6,30.14,NW,306,2.0,5.0,66,0.00,,,0.01,meteohub,2013-10-26 19:52:00,
2013-10-26 12:57:00,65.8,55.0,30.14,WNW,296,3.0,5.0,68,0.00,,,0.01,meteohub,2013-10-26 19:57:00,
2013-10-26 13:02:00,65.5,55.0,30.14,NNW,337,2.0,5.0,69,0.00,,,0.01,meteohub,2013-10-26 20:02:00,
2013-10-26 13:07:00,64.9,54.5,30.13,NW,317,4.0,5.0,69,0.00,,,0.01,meteohub,2013-10-26 20:07:00,
2013-10-26 13:12:00,64.4,54.9,30.13,NNW,343,4.0,5.0,71,0.00,,,0.01,meteohub,2013-10-26 20:12:00,
2013-10-26 13:17:00,64.0,54.1,30.13,NW,306,3.0,4.0,70,0.00,,,0.01,meteohub,2013-10-26 20:17:00,
2013-10-26 13:22:00,64.0,54.5,30.13,NNW,330,2.0,5.0,71,0.00,,,0.01,meteohub,2013-10-26 20:22:00,
2013-10-26 13:27:00,63.3,53.8,30.12,NE,34,0.0,5.0,71,0.00,,,0.01,meteohub,2013-10-26 20:27:00,
2013-10-26 13:32:00,63.3,54.1,30.12,North,5,0.0,5.0,72,0.00,,,0.01,meteohub,2013-10-26 20:32:00,
2013-10-26 13:37:00,63.5,54.0,30.12,North,5,0.0,5.0,71,0.00,,,0.01,meteohub,2013-10-26 20:37:00,
2013-10-26 13:42:00,64.0,54.1,30.12,North,5,1.0,4.0,70,0.00,,,0.01,meteohub,2013-10-26 20:42:00,
2013-10-26 13:47:00,64.0,54.1,30.11,North,5,1.0,4.0,70,0.00,,,0.01,meteohub,2013-10-26 20:47:00,
2013-10-26 13:52:00,65.5,54.3,30.11,North,5,2.0,3.0,67,0.00,,,0.01,meteohub,2013-10-26 20:52:00,
2013-10-26 13:57:00,66.9,52.5,30.11,North,11,2.0,3.0,60,0.00,,,0.01,meteohub,2013-10-26 20:57:00,
2013-10-26 14:02:00,68.5,52.2,30.11,North,355,0.0,4.0,56,0.00,,,0.01,meteohub,2013-10-26 21:02:00,
2013-10-26 14:07:00,68.4,53.4,30.10,NNE,17,2.0,4.0,59,0.00,,,0.01,meteohub,2013-10-26 21:07:00,
2013-10-26 14:12:00,68.7,54.3,30.10,NNE,16,1.0,4.0,60,0.00,,,0.01,meteohub,2013-10-26 21:12:00,
2013-10-26 14:17:00,67.6,53.8,30.10,WNW,289,4.0,4.0,61,0.00,,,0.01,meteohub,2013-10-26 21:17:00,
2013-10-26 14:22:00,65.7,53.2,30.10,West,267,3.0,5.0,64,0.00,,,0.01,meteohub,2013-10-26 21:22:00,
2013-10-26 14:27:00,62.1,52.2,30.10,WNW,298,4.0,6.0,70,0.00,,,0.01,meteohub,2013-10-26 21:27:00,
2013-10-26 14:32:00,61.5,52.3,30.10,WNW,288,0.0,6.0,72,0.00,,,0.01,meteohub,2013-10-26 21:32:00,
2013-10-26 14:37:00,61.2,52.5,30.10,NW,312,0.0,6.0,73,0.00,,,0.01,meteohub,2013-10-26 21:37:00,
2013-10-26 14:42:00,60.4,52.9,30.10,WNW,291,0.0,6.0,76,0.00,,,0.01,meteohub,2013-10-26 21:42:00,
2013-10-26 14:47:00,61.3,53.4,30.10,WNW,296,0.0,6.0,75,0.00,,,0.01,meteohub,2013-10-26 21:47:00,
2013-10-26 14:52:00,62.4,52.9,30.10,WNW,285,2.0,6.0,71,0.00,,,0.01,meteohub,2013-10-26 21:52:00,
2013-10-26 14:57:00,61.0,51.4,30.10,WNW,296,0.0,4.0,71,0.00,,,0.01,meteohub,2013-10-26 21:57:00,
2013-10-26 15:02:00,61.9,52.0,30.10,WNW,296,1.0,4.0,70,0.00,,,0.01,meteohub,2013-10-26 22:02:00,
2013-10-26 15:07:00,61.5,51.6,30.09,WNW,297,3.0,4.0,70,0.00,,,0.01,meteohub,2013-10-26 22:07:00,
2013-10-26 15:12:00,61.9,52.3,30.09,WNW,292,0.0,5.0,71,0.00,,,0.01,meteohub,2013-10-26 22:12:00,
2013-10-26 15:17:00,63.1,52.0,30.09,NNE,17,4.0,5.0,67,0.00,,,0.01,meteohub,2013-10-26 22:17:00,
2013-10-26 15:22:00,64.0,51.6,30.09,North,9,2.0,5.0,64,0.00,,,0.01,meteohub,2013-10-26 22:22:00,
2013-10-26 15:27:00,64.6,49.5,30.09,West,269,0.0,5.0,58,0.00,,,0.01,meteohub,2013-10-26 22:27:00,
2013-10-26 15:32:00,63.3,50.5,30.09,NNW,335,0.0,5.0,63,0.00,,,0.01,meteohub,2013-10-26 22:32:00,
2013-10-26 15:37:00,62.2,50.7,30.09,NW,316,1.0,5.0,66,0.00,,,0.01,meteohub,2013-10-26 22:37:00,
2013-10-26 15:42:00,62.6,50.2,30.09,NNW,334,5.0,5.0,64,0.00,,,0.01,meteohub,2013-10-26 22:42:00,
2013-10-26 15:47:00,61.9,49.6,30.09,NW,305,1.0,6.0,64,0.00,,,0.01,meteohub,2013-10-26 22:47:00,
2013-10-26 15:52:00,61.0,50.4,30.09,WNW,292,6.0,7.0,68,0.00,,,0.01,meteohub,2013-10-26 22:52:00,
2013-10-26 15:57:00,59.7,51.1,30.08,NW,326,0.0,7.0,73,0.00,,,0.01,meteohub,2013-10-26 22:57:00,
2013-10-26 16:02:00,59.7,51.4,30.09,NW,312,5.0,7.0,74,0.00,,,0.01,meteohub,2013-10-26 23:02:00,
2013-10-26 16:07:00,58.6,51.4,30.08,NW,307,6.0,7.0,77,0.00,,,0.01,meteohub,2013-10-26 23:07:00,
2013-10-26 16:12:00,57.7,51.6,30.08,NNW,333,6.0,7.0,80,0.00,,,0.01,meteohub,2013-10-26 23:12:00,
2013-10-26 16:17:00,57.0,52.0,30.08,NW,306,2.0,7.0,83,0.00,,,0.01,meteohub,2013-10-26 23:17:00,
2013-10-26 16:22:00,56.8,51.8,30.08,NNW,327,3.0,7.0,83,0.00,,,0.01,meteohub,2013-10-26 23:22:00,
2013-10-26 16:27:00,56.5,52.0,30.08,NW,323,1.0,7.0,85,0.00,,,0.01,meteohub,2013-10-26 23:27:00,
2013-10-26 16:32:00,56.1,51.6,30.08,NW,323,5.0,7.0,85,0.00,,,0.01,meteohub,2013-10-26 23:32:00,
2013-10-26 16:37:00,55.8,51.6,30.08,NNW,330,3.0,7.0,86,0.00,,,0.01,meteohub,2013-10-26 23:37:00,
2013-10-26 16:42:00,55.6,52.2,30.08,WNW,302,1.0,8.0,88,0.00,,,0.01,meteohub,2013-10-26 23:42:00,
2013-10-26 16:47:00,55.0,51.6,30.08,NNW,333,0.0,8.0,88,0.00,,,0.01,meteohub,2013-10-26 23:47:00,
2013-10-26 16:52:00,54.7,51.4,30.08,NNE,15,0.0,7.0,89,0.00,,,0.01,meteohub,2013-10-26 23:52:00,
2013-10-26 16:57:00,54.3,51.4,30.08,SSE,167,2.0,6.0,90,0.00,,,0.01,meteohub,2013-10-26 23:57:00,
2013-10-26 17:02:00,54.0,51.4,30.08,WSW,242,1.0,5.0,91,0.00,,,0.01,meteohub,2013-10-27 00:02:00,
2013-10-26 17:07:00,53.4,50.9,30.07,South,177,1.0,5.0,91,0.00,,,0.01,meteohub,2013-10-27 00:07:00,
2013-10-26 17:12:00,53.1,50.7,30.07,SW,223,1.0,5.0,92,0.00,,,0.01,meteohub,2013-10-27 00:12:00,
2013-10-26 17:17:00,52.9,50.5,30.07,South,178,0.0,5.0,92,0.00,,,0.01,meteohub,2013-10-27 00:17:00,
2013-10-26 17:22:00,52.5,50.5,30.07,NW,306,3.0,5.0,93,0.00,,,0.01,meteohub,2013-10-27 00:22:00,
2013-10-26 17:27:00,52.5,50.5,30.07,WSW,240,0.0,4.0,93,0.00,,,0.01,meteohub,2013-10-27 00:27:00,
2013-10-26 17:32:00,52.3,50.4,30.06,WSW,255,0.0,4.0,93,0.00,,,0.01,meteohub,2013-10-27 00:32:00,
2013-10-26 17:37:00,52.0,50.0,30.06,West,274,0.0,3.0,93,0.00,,,0.01,meteohub,2013-10-27 00:37:00,
2013-10-26 17:42:00,52.0,50.4,30.06,South,182,0.0,3.0,94,0.00,,,0.01,meteohub,2013-10-27 00:42:00,
2013-10-26 17:47:00,51.6,50.0,30.06,SSW,210,0.0,3.0,94,0.00,,,0.01,meteohub,2013-10-27 00:47:00,
2013-10-26 17:52:00,51.6,50.0,30.06,WNW,293,0.0,3.0,94,0.00,,,0.01,meteohub,2013-10-27 00:52:00,
2013-10-26 17:57:00,51.4,49.8,30.06,South,178,0.0,3.0,94,0.00,,,0.01,meteohub,2013-10-27 00:57:00,
2013-10-26 18:02:00,51.8,50.4,30.06,South,178,0.0,3.0,95,0.00,,,0.01,meteohub,2013-10-27 01:02:00,
2013-10-26 18:07:00,52.0,50.5,30.06,NNE,18,1.0,3.0,95,0.00,,,0.01,meteohub,2013-10-27 01:07:00,
2013-10-26 18:12:00,52.0,50.4,30.06,NE,51,0.0,2.0,94,0.00,,,0.01,meteohub,2013-10-27 01:12:00,
2013-10-26 18:17:00,52.2,50.5,30.06,East,82,0.0,2.0,94,0.00,,,0.01,meteohub,2013-10-27 01:17:00,
2013-10-26 18:22:00,52.2,50.5,30.06,ESE,114,2.0,2.0,94,0.00,,,0.01,meteohub,2013-10-27 01:22:00,
2013-10-26 18:27:00,52.0,50.4,30.06,ESE,114,1.0,2.0,94,0.00,,,0.01,meteohub,2013-10-27 01:27:00,
2013-10-26 18:32:00,52.0,50.0,30.06,ESE,114,0.0,2.0,93,0.00,,,0.01,meteohub,2013-10-27 01:32:00,
2013-10-26 18:37:00,51.6,49.6,30.06,East,93,0.0,2.0,93,0.00,,,0.01,meteohub,2013-10-27 01:37:00,
2013-10-26 18:42:00,51.4,49.5,30.06,ESE,103,0.0,3.0,93,0.00,,,0.01,meteohub,2013-10-27 01:42:00,
2013-10-26 18:47:00,51.3,49.3,30.06,ESE,103,0.0,3.0,93,0.00,,,0.01,meteohub,2013-10-27 01:47:00,
2013-10-26 18:52:00,51.3,49.6,30.06,ESE,103,0.0,3.0,94,0.00,,,0.01,meteohub,2013-10-27 01:52:00,
2013-10-26 18:57:00,51.1,49.5,30.06,SE,146,1.0,4.0,94,0.00,,,0.01,meteohub,2013-10-27 01:57:00,
2013-10-26 19:02:00,51.1,49.5,30.06,SE,141,2.0,4.0,94,0.00,,,0.01,meteohub,2013-10-27 02:02:00,
2013-10-26 19:07:00,50.9,49.3,30.06,ESE,112,2.0,4.0,94,0.00,,,0.01,meteohub,2013-10-27 02:07:00,
2013-10-26 19:12:00,50.7,49.1,30.06,SSE,147,0.0,4.0,94,0.00,,,0.01,meteohub,2013-10-27 02:12:00,
2013-10-26 19:17:00,50.5,49.1,30.06,ESE,113,0.0,4.0,95,0.00,,,0.01,meteohub,2013-10-27 02:17:00,
2013-10-26 19:22:00,50.4,48.9,30.06,South,191,0.0,3.0,95,0.00,,,0.01,meteohub,2013-10-27 02:22:00,
2013-10-26 19:32:00,50.2,48.7,30.07,South,189,0.0,7.0,95,0.00,,,0.01,meteohub,2013-10-27 02:32:00,
2013-10-26 19:37:00,50.2,49.1,30.06,SSW,202,3.0,7.0,96,0.00,,,0.01,meteohub,2013-10-27 02:37:00,
2013-10-26 19:42:00,50.2,49.1,30.06,SSE,167,1.0,4.0,96,0.00,,,0.01,meteohub,2013-10-27 02:42:00,
2013-10-26 19:47:00,50.2,49.1,30.06,SSW,194,1.0,5.0,96,0.00,,,0.01,meteohub,2013-10-27 02:47:00,
2013-10-26 19:57:00,49.8,48.7,30.06,SSE,156,3.0,6.0,96,0.00,,,0.01,meteohub,2013-10-27 02:57:00,
2013-10-26 20:02:00,49.8,48.7,30.06,SE,132,3.0,6.0,96,0.00,,,0.01,meteohub,2013-10-27 03:02:00,
2013-10-26 20:07:00,49.8,48.7,30.06,SE,141,0.0,5.0,96,0.00,,,0.01,meteohub,2013-10-27 03:07:00,
2013-10-26 20:12:00,49.8,48.7,30.06,SSE,162,4.0,5.0,96,0.00,,,0.01,meteohub,2013-10-27 03:12:00,
2013-10-26 20:17:00,49.8,48.7,30.06,ESE,112,5.0,5.0,96,0.00,,,0.01,meteohub,2013-10-27 03:17:00,
2013-10-26 20:22:00,49.8,48.9,30.06,SE,134,0.0,6.0,97,0.00,,,0.01,meteohub,2013-10-27 03:22:00,
2013-10-26 20:27:00,49.8,48.9,30.06,SSE,160,0.0,6.0,97,0.00,,,0.01,meteohub,2013-10-27 03:27:00,
2013-10-26 20:32:00,49.8,48.9,30.06,SSE,150,5.0,6.0,97,0.00,,,0.01,meteohub,2013-10-27 03:32:00,
2013-10-26 20:37:00,49.8,48.9,30.06,SE,130,3.0,8.0,97,0.00,,,0.01,meteohub,2013-10-27 03:37:00,
2013-10-26 20:42:00,49.8,48.9,30.07,SSE,154,2.0,8.0,97,0.00,,,0.01,meteohub,2013-10-27 03:42:00,
2013-10-26 20:47:00,49.6,48.7,30.06,ESE,121,0.0,8.0,97,0.00,,,0.01,meteohub,2013-10-27 03:47:00,
2013-10-26 20:52:00,49.8,48.9,30.06,South,177,0.0,6.0,97,0.00,,,0.01,meteohub,2013-10-27 03:52:00,
2013-10-26 20:57:00,49.6,48.7,30.07,ESE,108,0.0,6.0,97,0.00,,,0.01,meteohub,2013-10-27 03:57:00,
2013-10-26 21:02:00,49.8,48.9,30.07,NE,44,3.0,6.0,97,0.00,,,0.01,meteohub,2013-10-27 04:02:00,
2013-10-26 21:07:00,49.8,48.9,30.07,ESE,111,1.0,6.0,97,0.00,,,0.01,meteohub,2013-10-27 04:07:00,
2013-10-26 21:12:00,49.8,48.9,30.07,SE,146,0.0,5.0,97,0.00,,,0.01,meteohub,2013-10-27 04:12:00,
2013-10-26 21:17:00,49.8,48.9,30.07,NE,54,0.0,5.0,97,0.00,,,0.01,meteohub,2013-10-27 04:17:00,
2013-10-26 21:22:00,49.8,48.9,30.07,South,169,2.0,4.0,97,0.00,,,0.01,meteohub,2013-10-27 04:22:00,
2013-10-26 21:27:00,49.8,49.3,30.07,ENE,71,1.0,4.0,98,0.00,,,0.01,meteohub,2013-10-27 04:27:00,
2013-10-26 21:32:00,50.0,49.5,30.07,South,189,1.0,4.0,98,0.00,,,0.01,meteohub,2013-10-27 04:32:00,
2013-10-26 21:37:00,50.0,49.5,30.08,NE,54,1.0,6.0,98,0.00,,,0.01,meteohub,2013-10-27 04:37:00,
2013-10-26 21:42:00,50.0,49.5,30.08,East,96,2.0,6.0,98,0.00,,,0.01,meteohub,2013-10-27 04:42:00,
2013-10-26 21:47:00,50.2,49.6,30.08,ENE,72,2.0,4.0,98,0.00,,,0.01,meteohub,2013-10-27 04:47:00,
2013-10-26 21:52:00,50.0,49.5,30.08,South,182,1.0,3.0,98,0.00,,,0.01,meteohub,2013-10-27 04:52:00,
2013-10-26 21:57:00,49.8,49.3,30.08,SW,236,0.0,6.0,98,0.00,,,0.01,meteohub,2013-10-27 04:57:00,
2013-10-26 22:02:00,49.8,49.3,30.08,SSE,167,0.0,8.0,98,0.00,,,0.01,meteohub,2013-10-27 05:02:00,
2013-10-26 22:07:00,49.8,49.3,30.08,SSW,213,1.0,8.0,98,0.00,,,0.01,meteohub,2013-10-27 05:07:00,
2013-10-26 22:12:00,49.6,49.1,30.08,SSW,213,2.0,9.0,98,0.00,,,0.01,meteohub,2013-10-27 05:12:00,
2013-10-26 22:17:00,49.6,49.1,30.08,SSE,166,2.0,9.0,98,0.00,,,0.01,meteohub,2013-10-27 05:17:00,
2013-10-26 22:22:00,49.6,49.1,30.08,ESE,121,2.0,9.0,98,0.00,,,0.01,meteohub,2013-10-27 05:22:00,
2013-10-26 22:27:00,49.6,49.1,30.08,SSE,161,2.0,7.0,98,0.00,,,0.01,meteohub,2013-10-27 05:27:00,
2013-10-26 22:32:00,49.6,49.1,30.08,North,9,1.0,7.0,98,0.00,,,0.01,meteohub,2013-10-27 05:32:00,
2013-10-26 22:37:00,49.5,48.9,30.08,NE,38,3.0,5.0,98,0.00,,,0.01,meteohub,2013-10-27 05:37:00,
2013-10-26 22:42:00,49.5,48.9,30.08,South,184,1.0,5.0,98,0.00,,,0.01,meteohub,2013-10-27 05:42:00,
2013-10-26 22:47:00,49.3,48.7,30.08,SE,142,2.0,8.0,98,0.00,,,0.01,meteohub,2013-10-27 05:47:00,
2013-10-26 22:52:00,49.5,48.9,30.08,NNE,28,1.0,8.0,98,0.00,,,0.01,meteohub,2013-10-27 05:52:00,
2013-10-26 22:57:00,49.5,48.9,30.08,NNE,20,3.0,8.0,98,0.00,,,0.01,meteohub,2013-10-27 05:57:00,
2013-10-26 23:02:00,49.3,48.7,30.08,North,5,2.0,7.0,98,0.00,,,0.01,meteohub,2013-10-27 06:02:00,
2013-10-26 23:07:00,49.5,48.9,30.08,NE,55,0.0,7.0,98,0.00,,,0.01,meteohub,2013-10-27 06:07:00,
2013-10-26 23:12:00,49.5,48.9,30.08,NE,41,2.0,7.0,98,0.00,,,0.01,meteohub,2013-10-27 06:12:00,
2013-10-26 23:17:00,49.5,48.9,30.08,ENE,57,1.0,6.0,98,0.00,,,0.01,meteohub,2013-10-27 06:17:00,
2013-10-26 23:22:00,49.5,48.9,30.08,NE,38,0.0,6.0,98,0.00,,,0.01,meteohub,2013-10-27 06:22:00,
2013-10-26 23:27:00,49.5,48.9,30.07,ESE,104,1.0,7.0,98,0.00,,,0.01,meteohub,2013-10-27 06:27:00,
2013-10-26 23:32:00,49.5,48.9,30.07,NE,55,2.0,7.0,98,0.00,,,0.01,meteohub,2013-10-27 06:32:00,
2013-10-26 23:37:00,49.5,48.9,30.07,ESE,121,1.0,7.0,98,0.00,,,0.01,meteohub,2013-10-27 06:37:00,
2013-10-26 23:42:00,49.5,48.9,30.07,ENE,58,0.0,5.0,98,0.00,,,0.01,meteohub,2013-10-27 06:42:00,
2013-10-26 23:47:00,49.5,48.9,30.07,NE,34,2.0,7.0,98,0.00,,,0.01,meteohub,2013-10-27 06:47:00,
2013-10-26 23:52:00,49.5,48.9,30.07,NW,305,1.0,8.0,98,0.00,,,0.01,meteohub,2013-10-27 06:52:00,
2013-10-26 23:57:00,49.5,48.9,30.07,NNE,14,0.0,8.0,98,0.00,,,0.01,meteohub,2013-10-27 06:57:00,